Погода в Нижнем Имеке

Россия / Республика Хакасия     52°49′38″N   89°57′35″E
темп.,
°C
ветер,
м/с
пор.,
м/с
влажн.,
%
обл.,
%
осадки,
мм/ч
давл.,
гПа
погр.,
м
14 апреля, ср
ср1401:00−3зюз51185100 0.1 1033580
04:00−2зюз51285100 0.1 1032891
07:00−2зюз6137889 0.1 10331102
10:00+1з8127477 0.0 10321325
13:00+3з8127278 0.3 10311619
16:00+3з81470100 0.1 10291496
19:00+1зюз81675100 0.1 10271203
22:00+1зюз71884100 0.4 10261306
15 апреля, чт
чт1501:00+1зюз8178461 0.5 10251138
04:00+1зюз61694100 0.2 10261147
07:00+2зюз51496100 0.4 10271055
10:00+3з41291100 0.1 10281030
13:00+5з4980100 0.1 1027999
16:00+6з487695 0.1 1026994
19:00+5зсз118599 0.1 102535
22:00+3ююз119199 0.0 102519
16 апреля, пт
пт1601:00+2ююз229372 0.0 102435
04:00+2юз2288100 0.0 102461
07:00+3ююз238887 0.0 102378
10:00+8з377254 0.0 1021938
13:00+9з596492 0.0 10201296
16:00+11з610555 0.0 10171483
19:00+9з48722 0.0 1017649
22:00+4ююз22912 0.0 101732
17 апреля, сб
сб1701:00+3ююз228927 0.0 101631
04:00+2юз22895 0.0 101625
07:00+3юз1187100 0.0 101527
10:00+9ю1264100 0.0 1012315
13:00+3ссв4584100 0.1 1014372
16:00−1св3695100 3.4 1017446
19:00−1св2292100 4.2 1016320
22:00−2ссз1197100 1.1 1016171
18 апреля, вс
вс1801:00−1ююз1392100 1.6 1014164
04:00+1ююз1197100 0.1 101353
07:00+1з3998100 0.4 1013818
10:00+2зюз41198100 0.6 1014920
13:00+4з71377100 1.1 10151409
16:00+3з587895 0.4 10151006
19:00+1зюз2784100 0.6 1016699
22:000юв1195100 0.3 101635